North Myrtle Beach, SC

4:15 AM EST on November 18, 2019 (GMT -0500)
Grand Strand

Weather History for KCRE - August, 2019

Change the Weather History Date:

Wednesday, August 7, 2019

  Actual Average Record
Temperature  
Mean Temperature 83 °F 79 °F  
Max Temperature 88 °F 86 °F 100 °F (1989)
Min Temperature 78 °F 72 °F 56 °F (2004)
Degree Days  
Heating Degree Days 0 0  
Month to date heating degree days 0 0  
Since 1 June heating degree days 0 0  
Since 1 July heating degree days 0 0  
Cooling Degree Days 18 14  
Month to date cooling degree days 104 103  
Year to date cooling degree days 1396 1148  
Since 1 June cooling degree days 1003 936  
Growing Degree Days 33 (Base 50)    
Moisture  
Dew Point 78 °F    
Average Humidity 84    
Maximum Humidity 97    
Minimum Humidity 70    
Precipitation  
Precipitation T in 0.19 in 2.50 in (1998)
Month to date precipitation 0.48 1.46  
Year to date precipitation 23.49 29.40  
Sea Level Pressure  
Sea Level Pressure 29.88 in    
Wind  
Wind Speed 13 mph (SW)    
Max Wind Speed 23 mph    
Max Gust Speed 29 mph    
Visibility 10 miles    
Events Rain , Thunderstorm    
T = Trace of Precipitation, MM = Missing Value Source: NWS Daily Summary

Daily Weather History Graph

Daily Weather History Graph

Search for Another Location

Airport or City:

Astronomy

Aug. 07, 2019 Rise Set
Actual Time 6:30 AM EDT 8:10 PM EDT
Civil Twilight 6:03 AM EDT 8:36 PM EDT
Nautical Twilight 5:31 AM EDT 9:09 PM EDT
Astronomical Twilight 4:57 AM EDT 9:43 PM EDT
Moon 1:40 PM EDT (8/7) 12:13 AM EDT (8/7)
Length of Visible Light 14h 32m
Length of Day
13h 39m
Waxing Crescent, 49% of the Moon is Illuminated
Aug 7
Waxing Crescent
Aug 7
First Quarter
Aug 15
Full
Aug 23
Last Quarter
Aug 30
New

Hourly Weather History & Observations

Time (EDT) Temp. Heat Index Dew Point Humidity Pressure Visibility Wind Dir Wind Speed Gust Speed Precip Events Conditions
12:53 AM 81.0 °F 87.3 °F 75.9 °F 85% 29.92 in 10.0 mi SW 12.7 mph - N/A   Partly Cloudy
1:53 AM 81.0 °F 87.3 °F 75.9 °F 85% 29.91 in 10.0 mi SW 10.4 mph - N/A   Partly Cloudy
2:53 AM 80.1 °F 85.4 °F 75.9 °F 87% 29.90 in 10.0 mi WSW 9.2 mph - N/A   Clear
3:53 AM 80.1 °F 85.4 °F 75.9 °F 87% 29.90 in 10.0 mi WSW 8.1 mph - N/A   Clear
4:53 AM 79.0 °F - 75.9 °F 90% 29.90 in 10.0 mi West 5.8 mph - N/A   Clear
5:53 AM 79.0 °F - 77.0 °F 94% 29.91 in 10.0 mi WSW 6.9 mph - N/A   Clear
6:53 AM 79.0 °F - 77.0 °F 94% 29.91 in 10.0 mi SW 4.6 mph - N/A   Partly Cloudy
7:53 AM 80.1 °F 86.4 °F 78.1 °F 94% 29.93 in 10.0 mi SW 6.9 mph - N/A   Partly Cloudy
8:53 AM 82.9 °F 91.8 °F 77.0 °F 82% 29.92 in 10.0 mi WSW 8.1 mph - N/A   Clear
9:53 AM 86.0 °F 95.1 °F 75.0 °F 70% 29.92 in 10.0 mi Variable 5.8 mph - N/A   Clear
10:53 AM 86.0 °F 98.3 °F 78.1 °F 77% 29.92 in 10.0 mi South 9.2 mph - N/A   Clear
11:53 AM 86.0 °F 98.3 °F 78.1 °F 77% 29.92 in 10.0 mi SSW 11.5 mph - N/A   Clear
12:53 PM 87.1 °F 99.8 °F 78.1 °F 74% 29.90 in 10.0 mi South 12.7 mph - N/A   Clear
1:53 PM 87.1 °F 101.5 °F 79.0 °F 77% 29.89 in 10.0 mi South 15.0 mph - N/A   Clear
2:53 PM 87.1 °F 98.8 °F 77.0 °F 72% 29.86 in 10.0 mi South 15.0 mph 24.2 mph N/A   Clear
3:53 PM 87.1 °F 99.8 °F 78.1 °F 74% 29.84 in 10.0 mi South 16.1 mph - N/A   Clear
4:30 PM 84.9 °F 96.6 °F 78.1 °F 80% 29.85 in 10.0 mi SSW 15.0 mph 24.2 mph N/A Thunderstorm Thunderstorm
4:45 PM 84.9 °F 96.6 °F 78.1 °F 80% 29.85 in 10.0 mi SSW 17.3 mph 24.2 mph N/A   Partly Cloudy
4:53 PM 84.0 °F 94.8 °F 78.1 °F 82% 29.85 in 10.0 mi SSW 15.0 mph 23.0 mph 0.00 in Rain Light Rain
5:53 PM 86.0 °F 98.3 °F 78.1 °F 77% 29.84 in 10.0 mi SSW 18.4 mph - 0.00 in   Clear
6:53 PM 84.9 °F 96.6 °F 78.1 °F 80% 29.83 in 10.0 mi SSW 21.9 mph 27.6 mph N/A   Clear
7:53 PM 84.0 °F 96.0 °F 79.0 °F 85% 29.84 in 10.0 mi SSW 19.6 mph 26.5 mph N/A   Clear
8:53 PM 82.9 °F 93.8 °F 79.0 °F 88% 29.85 in 10.0 mi SSW 21.9 mph - N/A   Clear
9:53 PM 82.9 °F 93.8 °F 79.0 °F 88% 29.87 in 10.0 mi SW 19.6 mph 28.8 mph N/A   Clear
10:53 PM 82.9 °F 93.8 °F 79.0 °F 88% 29.88 in 10.0 mi SW 15.0 mph - N/A   Clear
11:53 PM 82.9 °F 93.8 °F 79.0 °F 88% 29.89 in 10.0 mi SW 20.7 mph 25.3 mph N/A   Scattered Clouds